sat.trackr.live / text

‹ back to catalog

STARLINK-11617 [DTC]

NORAD 63184 · 2025-048B

PAYLOAD ACTIVE UNKNOWN

§ Identity

Operator
Country
US
Launch date
2025-03-13
Launch site
AFETR
Launch vehicle
Mass (kg)
RCS (m²)

Purposes: comms

External: N2YO · Heavens-Above · Gunter

§ Orbital elements

Epoch: 2026-05-24T13:50:59.457120Z

Period
91.67 min
Inclination
42.9998°
Eccentricity
0.0002835
Mean motion
15.70915131 rev/d
Perigee alt
354.4 km
Apogee alt
358.2 km
Semi-major
6,734.4 km
B*
1.2132e-3
RAAN
222.7121°
Arg perigee
264.0987°
Mean anomaly
95.9558°
Rev number
7,045

§ Raw data

STARLINK-11617 [DTC]1 63184U 25048B   26144.57707705  .00158746  00000+0  12132-2 0  99972 63184  42.9998 222.7121 0002835 264.0987  95.9558 15.70915131 70456

JSON: /api/v1/satellites/63184 · /tle

For live sub-satellite position, see the globe view (requires WebGL).

§ Visibility from observer

Set your observer location to see the next 7 days of passes ≥ 10°. The values pass through the URL so the page stays shareable.

No JS? Fill the form by hand. The geolocation button needs JavaScript.